Location: Brusselsch Zeekanaal
(50.8667°N, 4.3667°E)
Time: 23:06:12
(UTC+00:00)

CZ-4 R/B - Pass Details

Date: 08 November 2025
Orbit: 675 x 744 km, 98.7° (Epoch: 04 December)

Event Time Altitude Azimuth Distance (km) Brightness Sun altitude
Rises 05:28:06 0° 11° (N) 3,182 7.2 -12.6°
Reaches altitude 10° 05:30:27 10° 7° (N) 2,247 6.4 -12.2°
Maximum altitude 05:35:14 51° 292° (WNW) 910 4.0 -11.5°
Drops below altitude 10° 05:39:53 10° 218° (SW) 2,192 6.1 -10.7°
Sets 05:42:09 0° 213° (SSW) 3,096 6.9 -10.4°
